EST,Max TemperatureF,Mean TemperatureF,Min TemperatureF,Max Dew PointF,MeanDew PointF,Min DewpointF,Max Humidity, Mean Humidity, Min Humidity, Max Sea Level PressureIn, Mean Sea Level PressureIn, Min Sea Level PressureIn, Max VisibilityMiles, Mean VisibilityMiles, Min VisibilityMiles, Max Wind SpeedMPH, Mean Wind SpeedMPH, Max Gust SpeedMPH,PrecipitationIn, CloudCover, Events, WindDirDegrees
2013-2-1,23,18,13,12,8,2,77,62,47,30.26,30.14,29.87,10,10,10,20,11,30,0.00,5,,260
2013-2-2,26,20,15,21,13,6,86,75,64,30.22,30.05,29.95,10,6,1,15,9,18,0.00,8,Snow,245
2013-2-3,25,18,11,19,9,5,80,68,54,30.02,29.94,29.85,10,9,1,17,5,23,0.00,6,Snow,272
2013-2-4,24,21,18,19,15,6,85,77,59,30.03,29.96,29.90,10,6,1,8,4,,0.00,8,Snow,111
2013-2-5,31,26,21,28,19,14,92,77,53,29.96,29.89,29.82,10,8,1,13,3,16,0.00,7,Snow,215
2013-2-6,34,26,19,27,17,13,86,66,42,30.31,30.21,29.95,10,10,2,12,6,17,0.00,2,Snow,251
2013-2-7,38,33,28,27,23,18,79,66,59,30.31,30.14,29.92,10,10,5,12,4,18,0.00,7,Snow,96
2013-2-8,32,30,27,30,25,19,92,81,71,30.34,30.04,29.79,10,6,0,22,13,33,0.00,8,Snow,356
2013-2-9,34,25,16,21,18,13,89,72,47,30.45,30.38,30.31,10,10,10,9,5,,0.00,1,Snow,215
2013-2-10,41,30,20,37,26,17,92,80,54,30.31,30.07,29.72,10,8,3,9,2,,0.00,5,Rain,107
2013-2-11,46,40,35,43,32,26,90,73,59,29.87,29.69,29.57,10,10,7,26,12,38,0.00,8,,231
2013-2-12,35,34,32,28,25,22,76,68,62,30.05,29.97,29.87,10,10,10,17,12,24,0.00,8,,264
2013-2-13,42,36,30,28,24,22,84,67,46,29.94,29.83,29.75,10,10,7,9,5,9,0.00,5,,233
2013-2-14,42,36,31,37,32,28,90,81,70,29.83,29.76,29.69,10,7,2,22,8,34,0.00,6,Rain,216
2013-2-15,37,33,28,30,19,10,75,59,41,30.12,30.00,29.84,10,10,10,20,12,26,0.00,7,,291
2013-2-16,30,24,19,18,15,10,80,68,44,30.10,30.05,29.99,10,10,4,10,4,,0.00,6,,287
2013-2-17,27,20,14,14,6,2,80,52,37,30.22,30.18,30.07,10,10,10,13,7,20,0.00,2,,317
2013-2-18,47,34,20,32,20,7,72,57,46,30.23,29.98,29.63,10,10,10,17,5,24,0.00,3,,161
2013-2-19,47,34,21,42,25,11,90,73,55,29.91,29.66,29.43,10,8,2,23,16,33,0.00,7,Rain-Snow,238
2013-2-20,26,22,19,15,12,9,77,62,51,30.23,30.10,29.92,10,9,3,21,13,34,0.00,8,Snow,288
2013-2-21,27,24,21,21,14,12,81,67,54,30.39,30.33,30.23,10,10,5,14,8,23,0.00,7,Snow,26
2013-2-22,34,30,25,33,26,19,96,86,77,30.29,30.04,29.90,10,6,0,16,10,25,0.00,8,Snow,128
2013-2-23,34,31,28,31,22,18,87,67,54,29.93,29.90,29.87,10,10,7,14,9,26,0.00,8,Snow,238
2013-2-24,36,30,24,26,22,19,83,72,55,30.16,30.03,29.90,10,9,5,14,7,21,0.00,5,Snow,274
2013-2-25,41,31,22,23,21,19,87,65,44,30.24,30.19,30.13,10,10,10,8,3,,0.00,1,,80
2013-2-26,36,32,28,32,26,20,94,76,59,30.15,29.86,29.55,10,7,0,22,10,29,0.00,4,Rain-Snow,67
2013-2-27,36,34,33,34,33,32,95,91,84,29.60,29.54,29.48,10,6,0,15,8,21,0.00,8,Fog-Rain-Snow,186
2013-2-28,37,34,31,32,29,24,93,81,73,29.97,29.78,29.56,10,8,2,18,9,25,0.00,8,Snow,348